owner,sensor,date,latitude,longitude,vertical_datum,direction_of_sea_water_velocity,sea_water_speed,upward_sea_water_velocity,qcFlag 
TABS,ioos:station:wmo:42043:1,2007-12-01T00:00:00Z,28.9818,-94.9186,2.0,258.3165225,27.70395279,-99999.0,'11111222,11111222,99999999' 
TABS,ioos:station:wmo:42043:1,2007-12-01T00:30:00Z,28.9818,-94.9186,2.0,256.6295668,17.73055273,-99999.0,'11111222,11111222,99999999' 
TABS,ioos:station:wmo:42043:1,2007-12-01T01:00:00Z,28.9818,-94.9186,2.0,253.8020187,19.03561136,-99999.0,'11111222,11111222,99999999' 
TABS,ioos:station:wmo:42043:1,2007-12-01T01:30:00Z,28.9818,-94.9186,2.0,269.7262567,16.77019082,-99999.0,'11111222,11111222,99999999' 
TABS,ioos:station:wmo:42043:1,2007-12-01T02:00:00Z,28.9818,-94.9186,2.0,273.7895769,13.77010167,-99999.0,'11111222,11111222,99999999' 
TABS,ioos:station:wmo:42043:1,2007-12-01T02:30:00Z,28.9818,-94.9186,2.0,263.6347906,15.42507699,-99999.0,'11111222,11111222,99999999' 
TABS,ioos:station:wmo:42043:1,2007-12-01T03:00:00Z,28.9818,-94.9186,2.0,265.4050071,15.47974483,-99999.0,'11111222,11111222,99999999' 
TABS,ioos:station:wmo:42043:1,2007-12-01T03:30:00Z,28.9818,-94.9186,2.0,267.4252938,13.8039306,-99999.0,'11111222,11111222,99999999' 
TABS,ioos:station:wmo:42043:1,2007-12-01T04:00:00Z,28.9818,-94.9186,2.0,269.1113457,15.48186035,-99999.0,'11111222,11111222,99999999' 
TABS,ioos:station:wmo:42043:1,2007-12-01T04:30:00Z,28.9818,-94.9186,2.0,266.4744575,16.75169544,-99999.0,'11111222,11111222,99999999' 
TABS,ioos:station:wmo:42043:1,2007-12-01T05:00:00Z,28.9818,-94.9186,2.0,243.2133724,17.37437769,-99999.0,'11111222,11111222,99999999' 
TABS,ioos:station:wmo:42043:1,2007-12-01T05:30:00Z,28.9818,-94.9186,2.0,248.8816943,17.90230432,-99999.0,'11111222,11111222,99999999' 
TABS,ioos:station:wmo:42043:1,2007-12-01T06:00:00Z,28.9818,-94.9186,2.0,250.1754071,17.86895912,-99999.0,'11111222,11111222,99999999' 
TABS,ioos:station:wmo:42043:1,2007-12-01T06:30:00Z,28.9818,-94.9186,2.0,226.7610924,19.09383408,-99999.0,'11111222,11111222,99999999' 
TABS,ioos:station:wmo:42043:1,2007-12-01T07:00:00Z,28.9818,-94.9186,2.0,230.5165732,19.56434512,-99999.0,'11111222,11111222,99999999' 
TABS,ioos:station:wmo:42043:1,2007-12-01T07:30:00Z,28.9818,-94.9186,2.0,250.4054947,14.84993266,-99999.0,'11111222,11111222,99999999' 
TABS,ioos:station:wmo:42043:1,2007-12-01T08:00:00Z,28.9818,-94.9186,2.0,262.0361664,16.52939805,-99999.0,'11111222,11111222,99999999' 
TABS,ioos:station:wmo:42043:1,2007-12-01T08:30:00Z,28.9818,-94.9186,2.0,263.9079647,19.60067601,-99999.0,'11111222,11111222,99999999' 
TABS,ioos:station:wmo:42043:1,2007-12-01T09:00:00Z,28.9818,-94.9186,2.0,254.6877653,20.37319072,-99999.0,'11111222,11111222,99999999' 
TABS,ioos:station:wmo:42043:1,2007-12-01T09:30:00Z,28.9818,-94.9186,2.0,258.2663476,24.68581171,-99999.0,'11111222,11111222,99999999' 
TABS,ioos:station:wmo:42043:1,2007-12-01T10:00:00Z,28.9818,-94.9186,2.0,260.3017153,21.19285257,-99999.0,'11111222,11111222,99999999' 
TABS,ioos:station:wmo:42043:1,2007-12-01T10:30:00Z,28.9818,-94.9186,2.0,261.3849105,17.89185569,-99999.0,'11111222,11111222,99999999' 
TABS,ioos:station:wmo:42043:1,2007-12-01T11:00:00Z,28.9818,-94.9186,2.0,260.165266,19.49648686,-99999.0,'11111222,11111222,99999999' 
TABS,ioos:station:wmo:42043:1,2007-12-01T11:30:00Z,28.9818,-94.9186,2.0,251.8958584,17.50666159,-99999.0,'11111222,11111222,99999999' 
TABS,ioos:station:wmo:42043:1,2007-12-01T12:00:00Z,28.9818,-94.9186,2.0,266.0945738,20.1167045,-99999.0,'11111222,11111222,99999999' 
TABS,ioos:station:wmo:42043:1,2007-12-01T12:30:00Z,28.9818,-94.9186,2.0,247.7418073,21.91274515,-99999.0,'11111222,11111222,99999999' 
TABS,ioos:station:wmo:42043:1,2007-12-01T13:00:00Z,28.9818,-94.9186,2.0,255.4580928,20.35195568,-99999.0,'11111222,11111222,99999999' 
TABS,ioos:station:wmo:42043:1,2007-12-01T13:30:00Z,28.9818,-94.9186,2.0,248.1345163,25.05217356,-99999.0,'11111222,11111222,99999999' 
TABS,ioos:station:wmo:42043:1,2007-12-01T14:00:00Z,28.9818,-94.9186,2.0,250.412631,24.22161844,-99999.0,'11111222,11111222,99999999' 
TABS,ioos:station:wmo:42043:1,2007-12-01T14:30:00Z,28.9818,-94.9186,2.0,237.4867325,26.32608022,-99999.0,'11111222,11111222,99999999' 
TABS,ioos:station:wmo:42043:1,2007-12-01T15:00:00Z,28.9818,-94.9186,2.0,238.7866302,22.07550679,-99999.0,'11111222,11111222,99999999' 
TABS,ioos:station:wmo:42043:1,2007-12-01T15:30:00Z,28.9818,-94.9186,2.0,243.4686203,22.58876269,-99999.0,'11111222,11111222,99999999' 
TABS,ioos:station:wmo:42043:1,2007-12-01T16:00:00Z,28.9818,-94.9186,2.0,251.6996201,25.51016464,-99999.0,'11111222,11111222,99999999' 
TABS,ioos:station:wmo:42043:1,2007-12-01T16:30:00Z,28.9818,-94.9186,2.0,253.8908162,26.49009249,-99999.0,'11111222,11111222,99999999' 
TABS,ioos:station:wmo:42043:1,2007-12-01T17:00:00Z,28.9818,-94.9186,2.0,248.5650251,31.90682686,-99999.0,'11111222,11111222,99999999' 
TABS,ioos:station:wmo:42043:1,2007-12-01T17:30:00Z,28.9818,-94.9186,2.0,260.9239093,58.95810716,-99999.0,'11111222,11111222,99999999' 
TABS,ioos:station:wmo:42043:1,2007-12-01T18:00:00Z,28.9818,-94.9186,2.0,257.795605,55.67826596,-99999.0,'11111222,11111222,99999999' 
TABS,ioos:station:wmo:42043:1,2007-12-01T18:30:00Z,28.9818,-94.9186,2.0,255.7159734,59.54062563,-99999.0,'11111222,11111222,99999999' 
TABS,ioos:station:wmo:42043:1,2007-12-01T19:00:00Z,28.9818,-94.9186,2.0,254.8197684,52.74017539,-99999.0,'11111222,11111222,99999999' 
TABS,ioos:station:wmo:42043:1,2007-12-01T19:30:00Z,28.9818,-94.9186,2.0,248.5645418,57.21761704,-99999.0,'11111222,11111222,99999999' 
TABS,ioos:station:wmo:42043:1,2007-12-01T20:00:00Z,28.9818,-94.9186,2.0,250.4394552,55.55612027,-99999.0,'11111222,11111222,99999999' 
TABS,ioos:station:wmo:42043:1,2007-12-01T20:30:00Z,28.9818,-94.9186,2.0,246.5430892,55.99750887,-99999.0,'11111222,11111222,99999999' 
TABS,ioos:station:wmo:42043:1,2007-12-01T21:00:00Z,28.9818,-94.9186,2.0,245.7419761,50.65223095,-99999.0,'11111222,11111222,99999999' 
TABS,ioos:station:wmo:42043:1,2007-12-01T21:30:00Z,28.9818,-94.9186,2.0,247.6856112,50.43687242,-99999.0,'11111222,11111222,99999999' 
TABS,ioos:station:wmo:42043:1,2007-12-01T22:00:00Z,28.9818,-94.9186,2.0,246.971543,50.74359566,-99999.0,'11111222,11111222,99999999' 
TABS,ioos:station:wmo:42043:1,2007-12-01T22:30:00Z,28.9818,-94.9186,2.0,246.156184,43.98387545,-99999.0,'11111222,11111222,99999999' 
TABS,ioos:station:wmo:42043:1,2007-12-01T23:00:00Z,28.9818,-94.9186,2.0,249.0997481,46.02843034,-99999.0,'11111222,11111222,99999999' 
TABS,ioos:station:wmo:42043:1,2007-12-01T23:30:00Z,28.9818,-94.9186,2.0,249.7405351,43.81026021,-99999.0,'11111222,11111222,99999999' 
TABS,ioos:station:wmo:42043:1,2007-12-02T00:00:00Z,28.9818,-94.9186,2.0,247.7812909,40.06482996,-99999.0,'11111222,11111222,99999999' 
TABS,ioos:station:wmo:42043:1,2007-12-02T00:30:00Z,28.9818,-94.9186,2.0,242.3485467,37.75160924,-99999.0,'11111222,11111222,99999999' 
TABS,ioos:station:wmo:42043:1,2007-12-02T01:00:00Z,28.9818,-94.9186,2.0,246.093876,36.91698931,-99999.0,'11111222,11111222,99999999' 
TABS,ioos:station:wmo:42043:1,2007-12-02T01:30:00Z,28.9818,-94.9186,2.0,241.4628206,39.12304947,-99999.0,'11111222,11111222,99999999' 
TABS,ioos:station:wmo:42043:1,2007-12-02T02:00:00Z,28.9818,-94.9186,2.0,239.3429533,39.36120552,-99999.0,'11111222,11111222,99999999' 
TABS,ioos:station:wmo:42043:1,2007-12-02T02:30:00Z,28.9818,-94.9186,2.0,237.2202629,35.07535032,-99999.0,'11111222,11111222,99999999' 
TABS,ioos:station:wmo:42043:1,2007-12-02T03:00:00Z,28.9818,-94.9186,2.0,237.428682,34.79188555,-99999.0,'11111222,11111222,99999999' 
TABS,ioos:station:wmo:42043:1,2007-12-02T03:30:00Z,28.9818,-94.9186,2.0,238.3860365,30.69507615,-99999.0,'11111222,11111222,99999999' 
TABS,ioos:station:wmo:42043:1,2007-12-02T04:00:00Z,28.9818,-94.9186,2.0,232.9008189,31.53225174,-99999.0,'11111222,11111222,99999999' 
TABS,ioos:station:wmo:42043:1,2007-12-02T04:30:00Z,28.9818,-94.9186,2.0,230.9852216,32.54879721,-99999.0,'11111222,11111222,99999999' 
TABS,ioos:station:wmo:42043:1,2007-12-02T05:00:00Z,28.9818,-94.9186,2.0,228.63223,32.3656639,-99999.0,'11111222,11111222,99999999' 
TABS,ioos:station:wmo:42043:1,2007-12-02T05:30:00Z,28.9818,-94.9186,2.0,233.4066516,28.97033828,-99999.0,'11111222,11111222,99999999' 
TABS,ioos:station:wmo:42043:1,2007-12-02T06:00:00Z,28.9818,-94.9186,2.0,230.8195574,28.03278438,-99999.0,'11111222,11111222,99999999' 
TABS,ioos:station:wmo:42043:1,2007-12-02T06:30:00Z,28.9818,-94.9186,2.0,228.5206427,25.56066118,-99999.0,'11111222,11111222,99999999' 
TABS,ioos:station:wmo:42043:1,2007-12-02T07:00:00Z,28.9818,-94.9186,2.0,220.2157037,26.45309812,-99999.0,'11111222,11111222,99999999' 
TABS,ioos:station:wmo:42043:1,2007-12-02T07:30:00Z,28.9818,-94.9186,2.0,214.9194068,29.85529266,-99999.0,'11111222,11111222,99999999' 
TABS,ioos:station:wmo:42043:1,2007-12-02T08:00:00Z,28.9818,-94.9186,2.0,220.3561178,26.90179176,-99999.0,'11111222,11111222,99999999' 
TABS,ioos:station:wmo:42043:1,2007-12-02T08:30:00Z,28.9818,-94.9186,2.0,218.7158973,25.38918077,-99999.0,'11111222,11111222,99999999' 
TABS,ioos:station:wmo:42043:1,2007-12-02T09:00:00Z,28.9818,-94.9186,2.0,207.0537765,28.29623473,-99999.0,'11111222,11111222,99999999' 
TABS,ioos:station:wmo:42043:1,2007-12-02T09:30:00Z,28.9818,-94.9186,2.0,203.9986238,22.37417261,-99999.0,'11111222,11111222,99999999' 
TABS,ioos:station:wmo:42043:1,2007-12-02T10:00:00Z,28.9818,-94.9186,2.0,208.5683496,24.04796041,-99999.0,'11111222,11111222,99999999' 
TABS,ioos:station:wmo:42043:1,2007-12-02T10:30:00Z,28.9818,-94.9186,2.0,216.3711043,24.36692225,-99999.0,'11111222,11111222,99999999' 
TABS,ioos:station:wmo:42043:1,2007-12-02T11:00:00Z,28.9818,-94.9186,2.0,226.8683737,26.02122595,-99999.0,'11111222,11111222,99999999' 
TABS,ioos:station:wmo:42043:1,2007-12-02T11:30:00Z,28.9818,-94.9186,2.0,224.6014724,25.43524523,-99999.0,'11111222,11111222,99999999' 
TABS,ioos:station:wmo:42043:1,2007-12-02T12:00:00Z,28.9818,-94.9186,2.0,231.4288057,29.17485561,-99999.0,'11111222,11111222,99999999' 
TABS,ioos:station:wmo:42043:1,2007-12-02T12:30:00Z,28.9818,-94.9186,2.0,230.2627773,29.90943664,-99999.0,'11111222,11111222,99999999' 
TABS,ioos:station:wmo:42043:1,2007-12-02T13:00:00Z,28.9818,-94.9186,2.0,227.0085148,29.65306898,-99999.0,'11111222,11111222,99999999' 
TABS,ioos:station:wmo:42043:1,2007-12-02T13:30:00Z,28.9818,-94.9186,2.0,238.1966833,28.80456214,-99999.0,'11111222,11111222,99999999' 
TABS,ioos:station:wmo:42043:1,2007-12-02T14:00:00Z,28.9818,-94.9186,2.0,237.345251,24.70483556,-99999.0,'11111222,11111222,99999999' 
TABS,ioos:station:wmo:42043:1,2007-12-02T14:30:00Z,28.9818,-94.9186,2.0,240.995055,24.4802982,-99999.0,'11111222,11111222,99999999' 
TABS,ioos:station:wmo:42043:1,2007-12-02T15:00:00Z,28.9818,-94.9186,2.0,239.2763789,26.15033461,-99999.0,'11111222,11111222,99999999' 
TABS,ioos:station:wmo:42043:1,2007-12-02T15:30:00Z,28.9818,-94.9186,2.0,257.583878,26.92979948,-99999.0,'11111222,11111222,99999999' 
TABS,ioos:station:wmo:42043:1,2007-12-02T16:00:00Z,28.9818,-94.9186,2.0,242.1356416,23.27897764,-99999.0,'11111222,11111222,99999999' 
TABS,ioos:station:wmo:42043:1,2007-12-02T16:30:00Z,28.9818,-94.9186,2.0,251.916176,23.19574314,-99999.0,'11111222,11111222,99999999' 
TABS,ioos:station:wmo:42043:1,2007-12-02T17:00:00Z,28.9818,-94.9186,2.0,249.978379,21.8185907,-99999.0,'11111222,11111222,99999999' 
TABS,ioos:station:wmo:42043:1,2007-12-02T17:30:00Z,28.9818,-94.9186,2.0,241.8193058,20.62474242,-99999.0,'11111222,11111222,99999999' 
TABS,ioos:station:wmo:42043:1,2007-12-02T18:00:00Z,28.9818,-94.9186,2.0,254.5358963,18.79021554,-99999.0,'11111222,11111222,99999999' 
TABS,ioos:station:wmo:42043:1,2007-12-02T18:30:00Z,28.9818,-94.9186,2.0,258.0105354,19.68948196,-99999.0,'11111222,11111222,99999999' 
TABS,ioos:station:wmo:42043:1,2007-12-02T19:00:00Z,28.9818,-94.9186,2.0,257.8479341,21.09260534,-99999.0,'11111222,11111222,99999999' 
TABS,ioos:station:wmo:42043:1,2007-12-02T19:30:00Z,28.9818,-94.9186,2.0,252.9819142,23.78127835,-99999.0,'11111222,11111222,99999999' 
TABS,ioos:station:wmo:42043:1,2007-12-02T20:00:00Z,28.9818,-94.9186,2.0,259.8827943,25.61832157,-99999.0,'11111222,11111222,99999999' 
TABS,ioos:station:wmo:42043:1,2007-12-02T20:30:00Z,28.9818,-94.9186,2.0,261.2574991,21.44918646,-99999.0,'11111222,11111222,99999999' 
TABS,ioos:station:wmo:42043:1,2007-12-02T21:00:00Z,28.9818,-94.9186,2.0,260.3344268,22.75296244,-99999.0,'11111222,11111222,99999999' 
TABS,ioos:station:wmo:42043:1,2007-12-02T21:30:00Z,28.9818,-94.9186,2.0,260.6604756,20.64362856,-99999.0,'11111222,11111222,99999999' 
TABS,ioos:station:wmo:42043:1,2007-12-02T22:00:00Z,28.9818,-94.9186,2.0,261.1360329,19.66483664,-99999.0,'11111222,11111222,99999999' 
TABS,ioos:station:wmo:42043:1,2007-12-02T22:30:00Z,28.9818,-94.9186,2.0,260.4104155,14.10711168,-99999.0,'11111222,11111222,99999999' 
TABS,ioos:station:wmo:42043:1,2007-12-02T23:00:00Z,28.9818,-94.9186,2.0,255.4878968,19.87405344,-99999.0,'11111222,11111222,99999999' 
TABS,ioos:station:wmo:42043:1,2007-12-02T23:30:00Z,28.9818,-94.9186,2.0,249.0227285,18.32445634,-99999.0,'11111222,11111222,99999999' 
TABS,ioos:station:wmo:42043:1,2007-12-03T00:00:00Z,28.9818,-94.9186,2.0,264.8782745,12.77098273,-99999.0,'11111222,11111222,99999999' 
TABS,ioos:station:wmo:42043:1,2007-12-03T00:30:00Z,28.9818,-94.9186,2.0,244.2446491,16.13260673,-99999.0,'11111222,11111222,99999999' 
TABS,ioos:station:wmo:42043:1,2007-12-03T01:00:00Z,28.9818,-94.9186,2.0,243.6140462,15.70621851,-99999.0,'11111222,11111222,99999999' 
TABS,ioos:station:wmo:42043:1,2007-12-03T01:30:00Z,28.9818,-94.9186,2.0,260.3923921,13.00235748,-99999.0,'11111222,11111222,99999999' 
TABS,ioos:station:wmo:42043:1,2007-12-03T02:00:00Z,28.9818,-94.9186,2.0,265.2092808,17.84232328,-99999.0,'11111222,11111222,99999999' 
TABS,ioos:station:wmo:42043:1,2007-12-03T02:30:00Z,28.9818,-94.9186,2.0,287.2296175,16.98202874,-99999.0,'11111222,11111222,99999999' 
TABS,ioos:station:wmo:42043:1,2007-12-03T03:00:00Z,28.9818,-94.9186,2.0,279.3826922,18.83192237,-99999.0,'11111222,11111222,99999999' 
TABS,ioos:station:wmo:42043:1,2007-12-03T03:30:00Z,28.9818,-94.9186,2.0,273.898308,20.00627901,-99999.0,'11111222,11111222,99999999' 
TABS,ioos:station:wmo:42043:1,2007-12-03T04:00:00Z,28.9818,-94.9186,2.0,276.6443573,20.82988718,-99999.0,'11111222,11111222,99999999' 
TABS,ioos:station:wmo:42043:1,2007-12-03T04:30:00Z,28.9818,-94.9186,2.0,267.9582223,25.26603451,-99999.0,'11111222,11111222,99999999' 
TABS,ioos:station:wmo:42043:1,2007-12-03T05:00:00Z,28.9818,-94.9186,2.0,264.76668,22.91550785,-99999.0,'11111222,11111222,99999999' 
TABS,ioos:station:wmo:42043:1,2007-12-03T05:30:00Z,28.9818,-94.9186,2.0,236.6097026,30.18165171,-99999.0,'11111222,11111222,99999999' 
TABS,ioos:station:wmo:42043:1,2007-12-03T06:00:00Z,28.9818,-94.9186,2.0,233.6891804,29.9074255,-99999.0,'11111222,11111222,99999999' 
TABS,ioos:station:wmo:42043:1,2007-12-03T06:30:00Z,28.9818,-94.9186,2.0,232.8131007,42.33864665,-99999.0,'11111222,11111222,99999999' 
TABS,ioos:station:wmo:42043:1,2007-12-03T07:00:00Z,28.9818,-94.9186,2.0,236.9935406,46.00456499,-99999.0,'11111222,11111222,99999999' 
TABS,ioos:station:wmo:42043:1,2007-12-03T07:30:00Z,28.9818,-94.9186,2.0,227.6779342,48.12168326,-99999.0,'11111222,11111222,99999999' 
TABS,ioos:station:wmo:42043:1,2007-12-03T08:00:00Z,28.9818,-94.9186,2.0,231.0547666,40.488549,-99999.0,'11111222,11111222,99999999' 
TABS,ioos:station:wmo:42043:1,2007-12-03T08:30:00Z,28.9818,-94.9186,2.0,229.8248205,37.7447758,-99999.0,'11111222,11111222,99999999' 
TABS,ioos:station:wmo:42043:1,2007-12-03T09:00:00Z,28.9818,-94.9186,2.0,234.469343,45.25636861,-99999.0,'11111222,11111222,99999999' 
TABS,ioos:station:wmo:42043:1,2007-12-03T09:30:00Z,28.9818,-94.9186,2.0,233.9942045,61.51100064,-99999.0,'11111222,11111222,99999999' 
TABS,ioos:station:wmo:42043:1,2007-12-03T10:00:00Z,28.9818,-94.9186,2.0,238.567801,59.40737749,-99999.0,'11111222,11111222,99999999' 
TABS,ioos:station:wmo:42043:1,2007-12-03T10:30:00Z,28.9818,-94.9186,2.0,233.8687356,56.13666894,-99999.0,'11111222,11111222,99999999' 
TABS,ioos:station:wmo:42043:1,2007-12-03T11:00:00Z,28.9818,-94.9186,2.0,237.1811347,49.59593532,-99999.0,'11111222,11111222,99999999' 
TABS,ioos:station:wmo:42043:1,2007-12-03T11:30:00Z,28.9818,-94.9186,2.0,233.5565002,49.94738532,-99999.0,'11111222,11111222,99999999' 
TABS,ioos:station:wmo:42043:1,2007-12-03T12:00:00Z,28.9818,-94.9186,2.0,233.8890895,47.0861349,-99999.0,'11111222,11111222,99999999' 
TABS,ioos:station:wmo:42043:1,2007-12-03T12:30:00Z,28.9818,-94.9186,2.0,220.8047649,43.30610119,-99999.0,'11111222,11111222,99999999' 
TABS,ioos:station:wmo:42043:1,2007-12-03T13:00:00Z,28.9818,-94.9186,2.0,219.1924187,37.10849094,-99999.0,'11111222,11111222,99999999' 
TABS,ioos:station:wmo:42043:1,2007-12-03T13:30:00Z,28.9818,-94.9186,2.0,221.6411384,42.1239896,-99999.0,'11111222,11111222,99999999' 
TABS,ioos:station:wmo:42043:1,2007-12-03T14:00:00Z,28.9818,-94.9186,2.0,226.4958722,34.12246474,-99999.0,'11111222,11111222,99999999' 
TABS,ioos:station:wmo:42043:1,2007-12-03T14:30:00Z,28.9818,-94.9186,2.0,225.3265508,34.70536558,-99999.0,'11111222,11111222,99999999' 
TABS,ioos:station:wmo:42043:1,2007-12-03T15:00:00Z,28.9818,-94.9186,2.0,214.2799272,35.54430053,-99999.0,'11111222,11111222,99999999' 
TABS,ioos:station:wmo:42043:1,2007-12-03T15:30:00Z,28.9818,-94.9186,2.0,219.5231011,28.5986643,-99999.0,'11111222,11111222,99999999' 
TABS,ioos:station:wmo:42043:1,2007-12-03T16:00:00Z,28.9818,-94.9186,2.0,202.4025198,24.76940855,-99999.0,'11111222,11111222,99999999' 
TABS,ioos:station:wmo:42043:1,2007-12-03T16:30:00Z,28.9818,-94.9186,2.0,204.2673592,25.54748716,-99999.0,'11111222,11111222,99999999' 
TABS,ioos:station:wmo:42043:1,2007-12-03T17:00:00Z,28.9818,-94.9186,2.0,196.8671327,22.19484625,-99999.0,'11111222,11111222,99999999' 
TABS,ioos:station:wmo:42043:1,2007-12-03T17:30:00Z,28.9818,-94.9186,2.0,203.3211459,14.701102,-99999.0,'11111222,11111222,99999999' 
TABS,ioos:station:wmo:42043:1,2007-12-03T18:00:00Z,28.9818,-94.9186,2.0,208.3748738,19.82145302,-99999.0,'11111222,11111222,99999999' 
TABS,ioos:station:wmo:42043:1,2007-12-03T18:30:00Z,28.9818,-94.9186,2.0,202.0730036,16.04611479,-99999.0,'11111222,11111222,99999999' 
TABS,ioos:station:wmo:42043:1,2007-12-03T19:00:00Z,28.9818,-94.9186,2.0,193.5962396,17.69592043,-99999.0,'11111222,11111222,99999999' 
TABS,ioos:station:wmo:42043:1,2007-12-03T19:30:00Z,28.9818,-94.9186,2.0,181.4885739,16.165457,-99999.0,'11111222,11111222,99999999' 
TABS,ioos:station:wmo:42043:1,2007-12-03T20:00:00Z,28.9818,-94.9186,2.0,147.8704042,15.17390523,-99999.0,'11111222,11111222,99999999' 
TABS,ioos:station:wmo:42043:1,2007-12-03T20:30:00Z,28.9818,-94.9186,2.0,128.3150967,13.24221281,-99999.0,'11111222,11111222,99999999' 
TABS,ioos:station:wmo:42043:1,2007-12-03T21:00:00Z,28.9818,-94.9186,2.0,115.6996993,5.626588665,-99999.0,'11133222,11111222,99999999' 
TABS,ioos:station:wmo:42043:1,2007-12-03T21:30:00Z,28.9818,-94.9186,2.0,334.0441867,5.049326688,-99999.0,'11133222,11111222,99999999' 
TABS,ioos:station:wmo:42043:1,2007-12-03T22:00:00Z,28.9818,-94.9186,2.0,286.8150832,9.506445182,-99999.0,'11133222,11111222,99999999' 
TABS,ioos:station:wmo:42043:1,2007-12-03T22:30:00Z,28.9818,-94.9186,2.0,280.7032435,8.88455964,-99999.0,'11133222,11111222,99999999' 
TABS,ioos:station:wmo:42043:1,2007-12-03T23:00:00Z,28.9818,-94.9186,2.0,248.9698662,10.61716535,-99999.0,'11111222,11111222,99999999' 
TABS,ioos:station:wmo:42043:1,2007-12-03T23:30:00Z,28.9818,-94.9186,2.0,230.0953723,13.37475233,-99999.0,'11111222,11111222,99999999' 
TABS,ioos:station:wmo:42043:1,2007-12-04T00:00:00Z,28.9818,-94.9186,2.0,250.2032416,8.651271583,-99999.0,'11133222,11111222,99999999' 
TABS,ioos:station:wmo:42043:1,2007-12-04T00:30:00Z,28.9818,-94.9186,2.0,244.7492232,14.22960997,-99999.0,'11111222,11111222,99999999' 
TABS,ioos:station:wmo:42043:1,2007-12-04T01:00:00Z,28.9818,-94.9186,2.0,259.081209,11.19260917,-99999.0,'11111222,11111222,99999999' 
TABS,ioos:station:wmo:42043:1,2007-12-04T01:30:00Z,28.9818,-94.9186,2.0,241.4343615,10.1221391,-99999.0,'11111222,11111222,99999999' 
TABS,ioos:station:wmo:42043:1,2007-12-04T02:00:00Z,28.9818,-94.9186,2.0,234.3777928,10.2844397,-99999.0,'11111222,11111222,99999999' 
TABS,ioos:station:wmo:42043:1,2007-12-04T02:30:00Z,28.9818,-94.9186,2.0,249.3556918,7.629921363,-99999.0,'11133222,11111222,99999999' 
TABS,ioos:station:wmo:42043:1,2007-12-04T03:00:00Z,28.9818,-94.9186,2.0,247.8539517,12.36196182,-99999.0,'11111222,11111222,99999999' 
TABS,ioos:station:wmo:42043:1,2007-12-04T03:30:00Z,28.9818,-94.9186,2.0,247.0953168,10.22627987,-99999.0,'11111222,11111222,99999999' 
TABS,ioos:station:wmo:42043:1,2007-12-04T04:00:00Z,28.9818,-94.9186,2.0,247.4058176,8.459231644,-99999.0,'11133222,11111222,99999999' 
TABS,ioos:station:wmo:42043:1,2007-12-04T04:30:00Z,28.9818,-94.9186,2.0,252.565112,12.31578662,-99999.0,'11111222,11111222,99999999' 
TABS,ioos:station:wmo:42043:1,2007-12-04T05:00:00Z,28.9818,-94.9186,2.0,246.411569,7.147174267,-99999.0,'11133222,11111222,99999999' 
TABS,ioos:station:wmo:42043:1,2007-12-04T05:30:00Z,28.9818,-94.9186,2.0,228.3106181,7.71326779,-99999.0,'11133222,11111222,99999999' 
TABS,ioos:station:wmo:42043:1,2007-12-04T06:00:00Z,28.9818,-94.9186,2.0,266.8326039,7.421334112,-99999.0,'11133222,11111222,99999999' 
TABS,ioos:station:wmo:42043:1,2007-12-04T06:30:00Z,28.9818,-94.9186,2.0,230.049331,13.175037,-99999.0,'11111222,11111222,99999999' 
TABS,ioos:station:wmo:42043:1,2007-12-04T07:00:00Z,28.9818,-94.9186,2.0,233.3176483,14.02807542,-99999.0,'11111222,11111222,99999999' 
TABS,ioos:station:wmo:42043:1,2007-12-04T07:30:00Z,28.9818,-94.9186,2.0,235.409582,22.07147027,-99999.0,'11111222,11111222,99999999' 
TABS,ioos:station:wmo:42043:1,2007-12-04T08:00:00Z,28.9818,-94.9186,2.0,227.5646527,20.06658167,-99999.0,'11111222,11111222,99999999' 
TABS,ioos:station:wmo:42043:1,2007-12-04T08:30:00Z,28.9818,-94.9186,2.0,237.8669299,23.36983098,-99999.0,'11111222,11111222,99999999' 
TABS,ioos:station:wmo:42043:1,2007-12-04T09:00:00Z,28.9818,-94.9186,2.0,230.1088186,20.64468939,-99999.0,'11111222,11111222,99999999' 
TABS,ioos:station:wmo:42043:1,2007-12-04T09:30:00Z,28.9818,-94.9186,2.0,234.2189442,23.56825831,-99999.0,'11111222,11111222,99999999' 
TABS,ioos:station:wmo:42043:1,2007-12-04T10:00:00Z,28.9818,-94.9186,2.0,228.0425948,25.44221885,-99999.0,'11111222,11111222,99999999' 
TABS,ioos:station:wmo:42043:1,2007-12-04T10:30:00Z,28.9818,-94.9186,2.0,245.9128094,19.65105595,-99999.0,'11111222,11111222,99999999' 
TABS,ioos:station:wmo:42043:1,2007-12-04T11:00:00Z,28.9818,-94.9186,2.0,233.9401435,19.65596602,-99999.0,'11111222,11111222,99999999' 
TABS,ioos:station:wmo:42043:1,2007-12-04T11:30:00Z,28.9818,-94.9186,2.0,236.7313912,24.86511009,-99999.0,'11111222,11111222,99999999' 
TABS,ioos:station:wmo:42043:1,2007-12-04T12:00:00Z,28.9818,-94.9186,2.0,229.3373152,35.6200014,-99999.0,'11111222,11111222,99999999' 
TABS,ioos:station:wmo:42043:1,2007-12-04T12:30:00Z,28.9818,-94.9186,2.0,229.223809,34.17538295,-99999.0,'11111222,11111222,99999999' 
TABS,ioos:station:wmo:42043:1,2007-12-04T13:00:00Z,28.9818,-94.9186,2.0,239.0838125,28.70887319,-99999.0,'11111222,11111222,99999999' 
TABS,ioos:station:wmo:42043:1,2007-12-04T13:30:00Z,28.9818,-94.9186,2.0,236.3929159,34.32765795,-99999.0,'11111222,11111222,99999999' 
TABS,ioos:station:wmo:42043:1,2007-12-04T14:00:00Z,28.9818,-94.9186,2.0,236.8217278,31.64968404,-99999.0,'11111222,11111222,99999999' 
TABS,ioos:station:wmo:42043:1,2007-12-04T14:30:00Z,28.9818,-94.9186,2.0,239.145193,25.17260813,-99999.0,'11111222,11111222,99999999' 
TABS,ioos:station:wmo:42043:1,2007-12-04T15:00:00Z,28.9818,-94.9186,2.0,251.2623245,23.97039841,-99999.0,'11111222,11111222,99999999' 
TABS,ioos:station:wmo:42043:1,2007-12-04T15:30:00Z,28.9818,-94.9186,2.0,253.1609235,17.70930264,-99999.0,'11111222,11111222,99999999' 
TABS,ioos:station:wmo:42043:1,2007-12-04T16:00:00Z,28.9818,-94.9186,2.0,272.5875983,18.60896827,-99999.0,'11111222,11111222,99999999' 